This demonstration page uses our WeatherBlox Daily Observations layout. Learn more.

Left ArrowRight Arrow

Hourly Observations for November 10, 2020

Temp ( °F °C ) Dew Point ( °F °C ) Humidity (%) Winds ( mph kmh ) Pressure ( in mb ) Visibility ( mi km ) Precip ( " mm )
12:56 am 00:56 Windy with Snow Likely 27 -2.8 23 -5 85 85 N 21 33 29.96 1014 10 16 0.00 0.00
1:56 am 01:56 Cloudy 27 -2.8 24 -4.4 89 89 N 21 33 29.93 1014 10 16 0.00 0.00
2:08 am 02:08 Cloudy 27 -3 25 -4 93 93 N 25 41 29.97 1015 10 16 0.00 0.00
2:56 am 02:56 Cloudy 26 -3.3 24 -4.4 92 92 NNE 16 26 29.92 1013 10 16 0.00 0.00
3:56 am 03:56 Cloudy with Light Snow 26 -3.3 24 -4.4 92 92 NNE 15 24 29.92 1013 6 10 0.00 0.00
4:18 am 04:18 Cloudy with Light Snow 27 -3 25 -4 93 93 N 16 26 29.97 1015 4 6 0.00 0.00
4:56 am 04:56 Cloudy 26 -3.3 24 -4.4 92 92 N 20 31 29.90 1012 9 14 0.00 0.00
5:56 am 05:56 Cloudy with Light Snow 26 -3.3 24 -4.4 92 92 N 15 24 29.90 1013 4 6 0.00 0.00
6:07 am 06:07 Cloudy with Light Snow 27 -3 25 -4 93 93 N 16 26 29.95 1014 2 3 0.00 0.00
6:47 am 06:47 Cloudy with Light Snow 27 -3 25 -4 93 93 NNW 10 17 29.97 1015 1 2 0.00 0.00
6:56 am 06:56 Cloudy with Light Snow 26 -3.3 24 -4.4 92 92 NW 10 17 29.91 1013 2 2 0.00 0.00
7:24 am 07:24 Cloudy with Light Snow 27 -3 25 -4 93 93 NNW 9 15 29.97 1015 1 2 0.01 0.25
7:32 am 07:32 Cloudy with Light Snow 27 -3 25 -4 93 93 NNW 16 26 29.96 1014 1 2 0.02 0.51
7:38 am 07:38 Cloudy with Light Snow 27 -3 25 -4 93 93 NNW 15 24 29.96 1014 2 2 0.02 0.51
7:46 am 07:46 Cloudy with Light Snow 27 -3 25 -4 93 93 NW 13 20 29.97 1015 3 5 0.02 0.51
7:56 am 07:56 Cloudy with Light Snow 26 -3.3 24 -4.4 92 92 WNW 16 26 29.92 1013 4 6 0.02 0.51
8:05 am 08:05 Cloudy with Light Snow 27 -3 25 -4 93 93 WNW 15 24 29.98 1015 2 3 0.00 0.00
8:07 am 08:07 Cloudy with Light Snow 27 -3 25 -4 93 93 WNW 16 26 29.98 1015 2 3 0.00 0.00
8:20 am 08:20 Cloudy with Light Snow 27 -3 25 -4 93 93 NW 13 20 29.98 1015 1 2 0.00 0.00
8:31 am 08:31 Cloudy with Light Snow 27 -3 25 -4 93 93 NW 13 20 29.99 1015 2 3 0.00 0.00
8:40 am 08:40 Cloudy with Light Snow 27 -3 25 -4 93 93 NW 14 22 29.99 1015 8 13 0.00 0.00
8:56 am 08:56 Cloudy with Light Snow 26 -3.3 25 -3.9 96 96 NNW 14 22 29.91 1013 9 14 0.00 0.00
9:52 am 09:52 Cloudy with Light Snow 28 -2 27 -3 93 93 NNW 14 22 29.95 1014 3 4 0.00 0.00
9:56 am 09:56 Cloudy with Light Snow 29 -1.7 26 -3.3 89 89 NW 13 20 29.90 1012 2 3 0.00 0.00
10:03 am 10:03 Cloudy with Light Snow 28 -2 27 -3 93 93 NW 14 22 29.95 1014 1 2 0.01 0.25
10:16 am 10:16 Cloudy with Light Snow 28 -2 27 -3 93 93 NW 15 24 29.95 1014 1 2 0.01 0.25
10:24 am 10:24 Cloudy with Light Snow 30 -1 27 -3 86 86 NNW 12 19 29.95 1014 1 2 0.01 0.25
10:29 am 10:29 Cloudy with Light Snow 30 -1 27 -3 86 86 NW 13 20 29.95 1014 3 4 0.01 0.25
10:33 am 10:33 Cloudy with Light Snow 30 -1 27 -3 86 86 NW 15 24 29.95 1014 4 6 0.01 0.25
10:52 am 10:52 Cloudy with Light Snow 30 -1 27 -3 86 86 NW 15 24 29.96 1015 9 14 0.01 0.25
10:56 am 10:56 Cloudy with Light Snow 30 -1.1 26 -3.3 85 85 NW 14 22 29.92 1013 9 14 0.01 0.25
11:56 am 11:56 Cloudy 31 -0.6 27 -2.8 85 85 NW 14 22 29.92 1013 10 16 0.00 0.00
12:21 pm 12:21 Cloudy 32 0 28 -2 87 87 NW 14 22 29.95 1014 10 16 0.00 0.00
12:28 pm 12:28 Cloudy 34 1 28 -2 81 81 NW 13 20 29.94 1014 10 16 0.00 0.00
12:56 pm 12:56 Mostly Cloudy 34 1.1 29 -1.7 82 82 WNW 10 17 29.91 1013 10 16 0.00 0.00
1:37 pm 13:37 Mostly Cloudy 34 1 28 -2 81 81 WNW 10 17 29.93 1014 10 16 0.00 0.00
1:56 pm 13:56 Mostly Cloudy 34 1.1 29 -1.7 82 82 NW 10 17 29.88 1012 10 16 0.00 0.00
2:56 pm 14:56 Cloudy 35 1.7 30 -1.1 82 82 WNW 9 15 29.89 1012 10 16 0.00 0.00
3:56 pm 15:56 Mostly Cloudy 37 2.8 28 -2.2 70 70 W 7 11 29.90 1013 10 16 0.00 0.00
4:10 pm 16:10 Mostly Sunny 37 3 28 -2 70 70 W 8 13 29.91 1013 10 16 0.00 0.00
4:56 pm 16:56 Sunny 37 2.8 28 -2.2 70 70 WSW 7 11 29.91 1013 10 16 0.00 0.00
5:56 pm 17:56 Clear 33 0.6 28 -2.2 82 82 SSW 6 9 29.92 1013 10 16 0.00 0.00
6:56 pm 18:56 Clear 31 -0.6 27 -2.8 85 85 SSW 6 9 29.94 1014 10 16 0.00 0.00
7:56 pm 19:56 Clear 30 -1.1 28 -2.2 92 92 SSW 9 15 29.95 1014 10 16 0.00 0.00
8:56 pm 20:56 Clear 30 -1.1 28 -2.2 92 92 SSW 8 13 29.96 1015 10 16 0.00 0.00
9:56 pm 21:56 Clear 32 0 28 -2.2 85 85 SW 12 19 29.96 1015 10 16 0.00 0.00
10:56 pm 22:56 Clear 31 -0.6 26 -3.3 82 82 SSW 13 20 29.96 1015 10 16 0.00 0.00
11:56 pm 23:56 Clear 30 -1.1 25 -3.9 82 82 WSW 8 13 29.98 1015 10 16 0.00 0.00

Powered by AerisWeather